DLH33T EDDF-LIMC

Flight info

Callsign DLH33T
Flight time N/A
Altitude 31000
Route ANEKI2L/18 ANEKI Y163 HERBI/N0454F330 Y163 NATOR DCT DITON DCT BASGO Z424 RIXUV RIXUV3H
Aircraft A320/M-VGDW/C

Departure

Time 2026-05-04 09:01
Airport Frankfurt Main Airport (EDDF)

Arrival

Time N/A
Airport Milan Malpensa International Airport (LIMC)
Time Latitude Longitude Altitude Speed Heading
2026-05-04 08:31 50.04390 8.56168 362 ft 0 kts 155°
2026-05-04 08:46 50.04410 8.56154 363 ft 3 kts 157°
2026-05-04 08:46 50.04432 8.56143 358 ft 3 kts 175°
2026-05-04 08:47 50.04453 8.56146 356 ft 3 kts 214°
2026-05-04 08:47 50.04464 8.56164 364 ft 1 kts 250°
2026-05-04 08:47 50.04465 8.56169 363 ft 0 kts 250°
2026-05-04 08:51 50.04450 8.56108 358 ft 12 kts 250°
2026-05-04 08:51 50.04392 8.56037 356 ft 12 kts 164°
2026-05-04 08:52 50.04301 8.56071 358 ft 15 kts 180°
2026-05-04 08:52 50.04240 8.55943 356 ft 17 kts 250°
2026-05-04 08:52 50.04194 8.55752 359 ft 20 kts 249°
2026-05-04 08:52 50.04141 8.55531 352 ft 23 kts 249°
2026-05-04 08:53 50.04083 8.55289 357 ft 24 kts 249°
2026-05-04 08:54 50.03626 8.53509 339 ft 27 kts 249°
2026-05-04 08:55 50.03562 8.53241 337 ft 21 kts 250°
2026-05-04 08:55 50.03526 8.53090 335 ft 14 kts 250°
2026-05-04 08:55 50.03501 8.52987 334 ft 16 kts 250°
2026-05-04 08:55 50.03453 8.52809 333 ft 19 kts 248°
2026-05-04 08:57 50.03346 8.52594 336 ft 0 kts 180°
2026-05-04 09:01 49.84978 8.53671 9787 ft 243 kts 180°
2026-05-04 09:01 49.83301 8.53786 10665 ft 246 kts 180°
2026-05-04 09:01 49.81555 8.53907 11557 ft 249 kts 180°
2026-05-04 09:01 49.79811 8.54027 12431 ft 253 kts 180°
2026-05-04 09:02 49.78036 8.54115 13327 ft 256 kts 185°
2026-05-04 09:02 49.76195 8.53893 13794 ft 277 kts 187°
2026-05-04 09:02 49.74193 8.53621 14087 ft 300 kts 187°
2026-05-04 09:02 49.72011 8.53323 14337 ft 324 kts 187°
2026-05-04 09:03 49.69707 8.53012 14535 ft 346 kts 187°
2026-05-04 09:03 49.67289 8.52685 15007 ft 358 kts 187°
2026-05-04 09:03 49.64794 8.52356 15697 ft 362 kts 187°
2026-05-04 09:03 49.62243 8.52025 16415 ft 366 kts 187°
2026-05-04 09:04 49.59726 8.51698 17130 ft 369 kts 187°
2026-05-04 09:04 49.57127 8.51359 17847 ft 372 kts 187°
2026-05-04 09:04 49.54528 8.51019 18511 ft 375 kts 187°
2026-05-04 09:04 49.51917 8.50679 19104 ft 378 kts 187°
2026-05-04 09:05 49.49301 8.50338 19701 ft 381 kts 187°
2026-05-04 09:05 49.46631 8.49992 20303 ft 384 kts 187°
2026-05-04 09:05 49.43981 8.49647 20881 ft 387 kts 187°
2026-05-04 09:05 49.41270 8.49290 21434 ft 390 kts 187°
2026-05-04 09:06 49.38554 8.48931 21990 ft 393 kts 187°
2026-05-04 09:07 49.18999 8.46378 25360 ft 411 kts 187°
2026-05-04 09:08 49.16136 8.46010 25784 ft 414 kts 187°
2026-05-04 09:08 49.13261 8.45641 26213 ft 416 kts 187°
2026-05-04 09:08 49.10370 8.45268 26640 ft 418 kts 187°
2026-05-04 09:08 49.07457 8.44893 27057 ft 420 kts 188°
2026-05-04 09:09 49.04582 8.44155 27444 ft 420 kts 195°
2026-05-04 09:09 49.01726 8.43159 27830 ft 422 kts 195°
2026-05-04 09:09 48.98851 8.42148 28214 ft 424 kts 195°
2026-05-04 09:09 48.96012 8.41148 28600 ft 425 kts 195°
2026-05-04 09:10 48.93121 8.40132 28963 ft 427 kts 195°
2026-05-04 09:10 48.90218 8.39119 29334 ft 430 kts 194°
2026-05-04 09:10 48.87294 8.38105 29683 ft 432 kts 194°
2026-05-04 09:10 48.84360 8.37092 30083 ft 432 kts 194°
2026-05-04 09:11 48.81470 8.36099 30528 ft 430 kts 195°
2026-05-04 09:11 48.78511 8.35082 30907 ft 429 kts 195°
2026-05-04 09:11 48.75609 8.34061 31007 ft 426 kts 195°
2026-05-04 09:12 48.69902 8.31971 31031 ft 420 kts 195°
2026-05-04 09:14 48.47093 8.24941 31026 ft 424 kts 178°
2026-05-04 09:14 48.41238 8.26271 31020 ft 426 kts 174°
2026-05-04 09:15 48.35376 8.27692 31002 ft 425 kts 174°
2026-05-04 09:15 48.29538 8.29105 31006 ft 426 kts 174°
2026-05-04 09:17 48.03121 8.32320 31011 ft 424 kts 182°
2026-05-04 09:18 47.97223 8.32405 31012 ft 424 kts 182°
2026-05-04 09:18 47.91317 8.32487 31001 ft 424 kts 182°
2026-05-04 09:19 47.85411 8.32571 31009 ft 425 kts 182°
2026-05-04 09:19 47.79502 8.32647 31015 ft 425 kts 182°
2026-05-04 09:20 47.73577 8.32729 31017 ft 425 kts 182°
2026-05-04 09:20 47.67661 8.32815 31010 ft 425 kts 183°
2026-05-04 09:21 47.64711 8.32852 30397 ft 423 kts 182°
2026-05-04 09:21 47.61800 8.32892 29274 ft 427 kts 182°
2026-05-04 09:21 47.58781 8.32935 28075 ft 430 kts 182°
2026-05-04 09:21 47.55768 8.32982 26929 ft 433 kts 181°
2026-05-04 09:22 47.52811 8.33608 25973 ft 438 kts 165°
2026-05-04 09:22 47.50064 8.35559 25226 ft 438 kts 148°
2026-05-04 09:22 47.47839 8.38629 24462 ft 442 kts 131°
2026-05-04 09:22 47.46320 8.42573 23745 ft 445 kts 114°
2026-05-04 09:23 47.45563 8.46994 22954 ft 446 kts 100°
2026-05-04 09:23 47.45215 8.51536 22149 ft 443 kts 99°
2026-05-04 09:23 47.44896 8.56102 21414 ft 439 kts 97°
2026-05-04 09:23 47.45002 8.60586 20732 ft 439 kts 82°
2026-05-04 09:25 47.55177 8.85931 17374 ft 396 kts 24°
2026-05-04 09:25 47.57688 8.87564 16849 ft 393 kts 23°
2026-05-04 09:26 47.60180 8.89173 16364 ft 390 kts 23°
2026-05-04 09:26 47.62645 8.90826 15883 ft 386 kts 28°
2026-05-04 09:26 47.64686 8.93330 15428 ft 381 kts 53°
2026-05-04 09:26 47.65939 8.96729 14934 ft 375 kts 73°
2026-05-04 09:27 47.66449 9.00479 14457 ft 368 kts 89°
2026-05-04 09:27 47.66261 9.04222 14109 ft 362 kts 105°
2026-05-04 09:27 47.65399 9.07704 13947 ft 348 kts 122°
2026-05-04 09:27 47.64015 9.10533 13738 ft 333 kts 137°
2026-05-04 09:28 47.62227 9.12623 13350 ft 323 kts 153°
2026-05-04 09:28 47.60188 9.13893 12965 ft 316 kts 168°
2026-05-04 09:28 47.58066 9.14344 12565 ft 310 kts 181°
2026-05-04 09:28 47.55919 9.13999 12158 ft 305 kts 195°
2026-05-04 09:29 47.53930 9.12966 11753 ft 302 kts 204°
2026-05-04 09:29 47.52067 9.11632 11362 ft 301 kts 207°
2026-05-04 09:29 47.50236 9.10143 10957 ft 299 kts 209°
2026-05-04 09:29 47.48437 9.08615 10581 ft 297 kts 209°
2026-05-04 09:30 47.46669 9.07109 10374 ft 289 kts 209°
2026-05-04 09:30 47.44939 9.05654 10088 ft 284 kts 208°
2026-05-04 09:30 47.43278 9.04106 9720 ft 282 kts 217°
2026-05-04 09:30 47.41862 9.02100 9282 ft 283 kts 229°
2026-05-04 09:31 47.40770 8.99677 8818 ft 285 kts 241°
2026-05-04 09:31 47.40088 8.96955 8608 ft 279 kts 254°
2026-05-04 09:31 47.39830 8.94168 8443 ft 272 kts 266°
2026-05-04 09:31 47.39977 8.91393 8145 ft 271 kts 279°
2026-05-04 09:32 47.40539 8.88737 8045 ft 273 kts 292°
2026-05-04 09:32 47.41494 8.86285 8048 ft 277 kts 305°
2026-05-04 09:34 47.53671 8.83367 8048 ft 277 kts 28°
2026-05-04 09:34 47.54833 8.84285 8049 ft 277 kts 30°
2026-05-04 09:34 47.56501 8.85675 8046 ft 277 kts 31°
2026-05-04 09:34 47.58168 8.87094 8048 ft 277 kts 31°
2026-05-04 09:35 47.59968 8.88111 8045 ft 278 kts
2026-05-04 09:35 47.61883 8.87833 8039 ft 279 kts 339°
2026-05-04 09:35 47.63617 8.86463 8045 ft 279 kts 323°
2026-05-04 09:35 47.65152 8.84703 8042 ft 280 kts 321°
2026-05-04 09:37 47.75896 8.72479 8037 ft 278 kts 322°
2026-05-04 09:37 47.77414 8.70745 7928 ft 270 kts 322°
2026-05-04 09:38 47.78875 8.69074 7801 ft 259 kts 322°
2026-05-04 09:38 47.80277 8.67470 7648 ft 250 kts 322°
2026-05-04 09:38 47.81645 8.65901 7395 ft 247 kts 323°
2026-05-04 09:38 47.82999 8.64348 7132 ft 245 kts 323°
2026-05-04 09:39 47.84303 8.62734 6819 ft 243 kts 315°
2026-05-04 09:39 47.85320 8.60732 6529 ft 242 kts 300°
2026-05-04 09:39 47.85971 8.58423 6212 ft 242 kts 286°
2026-05-04 09:39 47.86230 8.55954 5948 ft 242 kts 271°
2026-05-04 09:40 47.86090 8.53470 5727 ft 240 kts 258°
2026-05-04 09:40 47.85562 8.51137 5464 ft 238 kts 244°
2026-05-04 09:40 47.84666 8.49063 5197 ft 237 kts 230°
2026-05-04 09:40 47.83475 8.47391 5014 ft 234 kts 216°
2026-05-04 09:41 47.82068 8.46191 4983 ft 236 kts 202°
2026-05-04 09:42 47.71017 8.41372 4986 ft 237 kts 195°
2026-05-04 09:43 47.69430 8.40696 4866 ft 237 kts 193°
2026-05-04 09:43 47.67840 8.40016 4544 ft 237 kts 195°
2026-05-04 09:43 47.66257 8.39343 4232 ft 234 kts 196°
2026-05-04 09:43 47.64729 8.38693 4116 ft 225 kts 196°
2026-05-04 09:44 47.63262 8.38067 4005 ft 215 kts 196°
2026-05-04 09:44 47.61837 8.37477 4001 ft 208 kts 192°
2026-05-04 09:44 47.60433 8.37523 3990 ft 200 kts 162°
2026-05-04 09:46 47.54267 8.45310 3024 ft 150 kts 135°
2026-05-04 09:46 47.53524 8.46332 2873 ft 142 kts 136°
2026-05-04 09:46 47.52801 8.47313 2720 ft 140 kts 135°
2026-05-04 09:47 47.52094 8.48293 2506 ft 138 kts 136°
2026-05-04 09:47 47.51392 8.49262 2348 ft 137 kts 137°
2026-05-04 09:49 47.46982 8.55288 1400 ft 53 kts 137°
2026-05-04 09:49 47.46741 8.55601 1401 ft 21 kts 150°
2026-05-04 09:49 47.46671 8.55640 1402 ft 8 kts 147°
2026-05-04 09:51 47.46333 8.55826 1401 ft 10 kts 138°
2026-05-04 09:51 47.46286 8.55885 1403 ft 8 kts 146°
2026-05-04 09:51 47.46243 8.55883 1398 ft 7 kts 221°
2026-05-04 09:51 47.46229 8.55831 1401 ft 5 kts 280°
2026-05-04 09:52 47.46234 8.55789 1398 ft 4 kts 279°
2026-05-04 09:52 47.46237 8.55758 1398 ft 3 kts 277°
2026-05-04 09:52 47.46242 8.55696 1398 ft 14 kts 275°
2026-05-04 09:52 47.46246 8.55560 1397 ft 5 kts 238°
2026-05-04 09:53 47.46213 8.55556 1402 ft 5 kts 183°
2026-05-04 09:53 47.46185 8.55552 1405 ft 2 kts 186°
2026-05-04 09:53 47.46179 8.55551 1399 ft 1 kts 186°
2026-05-04 09:53 47.46177 8.55551 1400 ft 0 kts 186°